"read_dt","SO2 (ppb)","flags","PMT voltage (V)","lamp voltage (V)","lamp intensity (Hz)","internal temp (C)","react chamber temp (C)","sample flow (l/min)","pres (mmHg)","SO2 bkg (ppb)","SO2 coefficient"
2016-07-15 00:00:00,2079E-3,5C000400,-0723,0828,12083,031.3,045.5,0.249,754.8,01.17,0.508
2016-07-15 00:01:00,2175E-3,5C000400,-0723,0828,12080,031.3,045.5,0.249,754.7,01.17,0.508
2016-07-15 00:02:00,2185E-3,5C000400,-0723,0828,12165,031.3,045.5,0.248,754.7,01.17,0.508
2016-07-15 00:03:00,2178E-3,5C000400,-0723,0828,12198,031.3,045.5,0.249,754.8,01.17,0.508
2016-07-15 00:04:00,2031E-3,5C000400,-0723,0829,12173,031.3,045.5,0.248,754.6,01.17,0.508
2016-07-15 00:05:00,2059E-3,5C000400,-0723,0828,12124,031.3,045.5,0.249,754.7,01.17,0.508
2016-07-15 00:06:00,2089E-3,5C000400,-0723,0828,12212,031.3,045.5,0.249,754.7,01.17,0.508
2016-07-15 00:07:00,2101E-3,5C000400,-0723,0828,12192,031.3,045.5,0.249,754.7,01.17,0.508
2016-07-15 00:08:00,2061E-3,5C000400,-0723,0828,12136,031.3,045.5,0.249,754.7,01.17,0.508
2016-07-15 00:09:00,2186E-3,5C000400,-0723,0828,12264,031.3,045.5,0.249,754.7,01.17,0.508
2016-07-15 00:10:00,2225E-3,5C000400,-0723,0828,12337,031.3,045.5,0.249,754.7,01.17,0.508
2016-07-15 00:11:00,2110E-3,5C000400,-0723,0828,12212,031.4,045.5,0.249,754.7,01.17,0.508
2016-07-15 00:12:00,2098E-3,5C000400,-0723,0829,12237,031.3,045.5,0.249,754.7,01.17,0.508
2016-07-15 00:13:00,2235E-3,5C000400,-0723,0828,12215,031.3,045.5,0.248,754.7,01.17,0.508
2016-07-15 00:14:00,2116E-3,5C000400,-0723,0828,12085,031.4,045.5,0.249,754.7,01.17,0.508
2016-07-15 00:15:00,2166E-3,5C000400,-0723,0828,12104,031.3,045.5,0.248,754.7,01.17,0.508
2016-07-15 00:16:00,2235E-3,5C000400,-0723,0828,12277,031.4,045.5,0.249,754.7,01.17,0.508
2016-07-15 00:17:00,2220E-3,5C000400,-0723,0828,12161,031.4,045.5,0.248,754.7,01.17,0.508
2016-07-15 00:18:00,2086E-3,5C000400,-0723,0828,12148,031.4,045.5,0.249,754.8,01.17,0.508
2016-07-15 00:19:00,2139E-3,5C000400,-0723,0829,12266,031.3,045.5,0.248,754.6,01.17,0.508
2016-07-15 00:20:00,2146E-3,5C000400,-0723,0828,12164,031.3,045.5,0.249,754.7,01.17,0.508
2016-07-15 00:21:00,2293E-3,5C000400,-0723,0828,12317,031.3,045.5,0.248,754.7,01.17,0.508
2016-07-15 00:22:00,2129E-3,5C000400,-0723,0828,12245,031.4,045.5,0.249,754.6,01.17,0.508
2016-07-15 00:23:00,2097E-3,5C000400,-0723,0828,12298,031.4,045.5,0.248,754.7,01.17,0.508
2016-07-15 00:24:00,2188E-3,5C000400,-0723,0828,12123,031.3,045.5,0.249,754.6,01.17,0.508
2016-07-15 00:25:00,2153E-3,5C000400,-0723,0828,12221,031.4,045.5,0.248,754.7,01.17,0.508
2016-07-15 00:26:00,2199E-3,5C000400,-0723,0828,12145,031.3,045.5,0.249,754.6,01.17,0.508
2016-07-15 00:27:00,2153E-3,5C000400,-0723,0829,12328,031.4,045.5,0.249,754.7,01.17,0.508
2016-07-15 00:28:00,2165E-3,5C000400,-0723,0828,12076,031.4,045.5,0.249,754.6,01.17,0.508
2016-07-15 00:29:00,2080E-3,5C000400,-0723,0830,12286,031.4,045.6,0.249,754.6,01.17,0.508
2016-07-15 00:30:00,2122E-3,5C000400,-0723,0828,12103,031.4,045.5,0.249,754.6,01.17,0.508
2016-07-15 00:31:00,2052E-3,5C000400,-0723,0828,12260,031.4,045.6,0.249,754.6,01.17,0.508
2016-07-15 00:32:00,2104E-3,5C000400,-0723,0828,12182,031.4,045.6,0.249,754.5,01.17,0.508
2016-07-15 00:33:00,2208E-3,5C000400,-0723,0828,12322,031.4,045.5,0.249,754.6,01.17,0.508
2016-07-15 00:34:00,2209E-3,5C000400,-0723,0828,12101,031.4,045.5,0.249,754.4,01.17,0.508
2016-07-15 00:35:00,2217E-3,5C000400,-0723,0829,12200,031.4,045.5,0.249,754.6,01.17,0.508
2016-07-15 00:36:00,2086E-3,5C000400,-0723,0829,12225,031.4,045.5,0.249,754.6,01.17,0.508
2016-07-15 00:37:00,2268E-3,5C000400,-0723,0828,12219,031.4,045.5,0.249,754.6,01.17,0.508
2016-07-15 00:38:00,2271E-3,5C000400,-0723,0828,12287,031.4,045.5,0.249,754.5,01.17,0.508
2016-07-15 00:39:00,2133E-3,5C000400,-0723,0828,12295,031.4,045.5,0.249,754.4,01.17,0.508
2016-07-15 00:40:00,2128E-3,5C000400,-0723,0828,12221,031.4,045.5,0.249,754.5,01.17,0.508
2016-07-15 00:41:00,2206E-3,5C000400,-0723,0827,12090,031.4,045.5,0.249,754.6,01.17,0.508
2016-07-15 00:42:00,2188E-3,5C000400,-0723,0828,12147,031.4,045.5,0.249,754.6,01.17,0.508
2016-07-15 00:43:00,2199E-3,5C000400,-0723,0827,12250,031.4,045.5,0.249,754.3,01.17,0.508
2016-07-15 00:44:00,2158E-3,5C000400,-0723,0828,12109,031.4,045.5,0.249,754.4,01.17,0.508
2016-07-15 00:45:00,2175E-3,5C000400,-0723,0828,12198,031.4,045.5,0.249,754.5,01.17,0.508
2016-07-15 00:46:00,2087E-3,5C000400,-0723,0828,12119,031.4,045.5,0.248,754.3,01.17,0.508
2016-07-15 00:47:00,2081E-3,5C000400,-0723,0828,12241,031.4,045.6,0.249,754.4,01.17,0.508
2016-07-15 00:48:00,2126E-3,5C000400,-0723,0828,12249,031.4,045.5,0.248,754.4,01.17,0.508
2016-07-15 00:49:00,2244E-3,5C000400,-0723,0829,12166,031.4,045.5,0.249,754.4,01.17,0.508
2016-07-15 00:50:00,2221E-3,5C000400,-0723,0828,12208,031.4,045.5,0.248,754.4,01.17,0.508
2016-07-15 00:51:00,2218E-3,5C000400,-0723,0828,12142,031.4,045.5,0.249,754.5,01.17,0.508
2016-07-15 00:52:00,2175E-3,5C000400,-0723,0828,12127,031.4,045.5,0.248,754.3,01.17,0.508
2016-07-15 00:53:00,2176E-3,5C000400,-0723,0828,12297,031.4,045.5,0.249,754.3,01.17,0.508
2016-07-15 00:54:00,2121E-3,5C000400,-0723,0828,12194,031.4,045.5,0.248,754.4,01.17,0.508
2016-07-15 00:55:00,2212E-3,5C000400,-0723,0828,12181,031.4,045.5,0.249,754.2,01.17,0.508
2016-07-15 00:56:00,2169E-3,5C000400,-0723,0828,12127,031.4,045.5,0.248,754.3,01.17,0.508
2016-07-15 00:57:00,2210E-3,5C000400,-0723,0828,12093,031.5,045.5,0.249,754.2,01.17,0.508
2016-07-15 00:58:00,2198E-3,5C000400,-0723,0828,12205,031.4,045.6,0.248,754.2,01.17,0.508
2016-07-15 00:59:00,2173E-3,5C000400,-0723,0828,12332,031.5,045.6,0.249,754.2,01.17,0.508
2016-07-15 01:00:00,2224E-3,5C000400,-0723,0828,12232,031.5,045.5,0.248,754.2,01.17,0.508
2016-07-15 01:01:00,2263E-3,5C000400,-0723,0828,12076,031.5,045.5,0.249,754.1,01.17,0.508
2016-07-15 01:02:00,2162E-3,5C000400,-0723,0828,12184,031.5,045.5,0.248,754.1,01.17,0.508
2016-07-15 01:03:00,2183E-3,5C000400,-0723,0829,12205,031.5,045.5,0.249,753.9,01.17,0.508
2016-07-15 01:04:00,2113E-3,5C000400,-0723,0829,12252,031.5,045.5,0.248,754.1,01.17,0.508
2016-07-15 01:05:00,2256E-3,5C000400,-0723,0829,12335,031.5,045.5,0.248,754.0,01.17,0.508
2016-07-15 01:06:00,2097E-3,5C000400,-0723,0828,12109,031.5,045.5,0.249,754.0,01.17,0.508
2016-07-15 01:07:00,2155E-3,5C000400,-0723,0828,12065,031.5,045.6,0.248,754.0,01.17,0.508
2016-07-15 01:08:00,2087E-3,5C000400,-0723,0828,12118,031.5,045.6,0.248,754.0,01.17,0.508
2016-07-15 01:09:00,2058E-3,5C000400,-0723,0828,12246,031.5,045.5,0.248,753.7,01.17,0.508
2016-07-15 01:10:00,2308E-3,5C000400,-0723,0829,12153,031.5,045.5,0.248,753.7,01.17,0.508
2016-07-15 01:11:00,2106E-3,5C000400,-0723,0829,12179,031.5,045.5,0.248,753.8,01.17,0.508
2016-07-15 01:12:00,2070E-3,5C000400,-0723,0829,12122,031.5,045.5,0.249,753.8,01.17,0.508
2016-07-15 01:13:00,2191E-3,5C000400,-0723,0829,12180,031.5,045.6,0.248,754.0,01.17,0.508
2016-07-15 01:14:00,2197E-3,5C000400,-0723,0828,12071,031.5,045.5,0.249,753.9,01.17,0.508
2016-07-15 01:15:00,2322E-3,5C000400,-0723,0828,12180,031.5,045.5,0.248,753.8,01.17,0.508
2016-07-15 01:16:00,2180E-3,5C000400,-0723,0828,12229,031.5,045.6,0.249,753.8,01.17,0.508
2016-07-15 01:17:00,2349E-3,5C000400,-0723,0829,12241,031.5,045.6,0.248,753.7,01.17,0.508
2016-07-15 01:18:00,2168E-3,5C000400,-0723,0828,12227,031.5,045.5,0.249,753.6,01.17,0.508
2016-07-15 01:19:00,2222E-3,5C000400,-0723,0828,11975,031.5,045.5,0.248,753.6,01.17,0.508
2016-07-15 01:20:00,2175E-3,5C000400,-0723,0829,12377,031.5,045.5,0.249,753.8,01.17,0.508
2016-07-15 01:21:00,2173E-3,5C000400,-0723,0829,12227,031.5,045.5,0.248,753.7,01.17,0.508
2016-07-15 01:22:00,2173E-3,5C000400,-0723,0828,12229,031.5,045.5,0.248,753.5,01.17,0.508
2016-07-15 01:23:00,2149E-3,5C000400,-0723,0829,12253,031.6,045.5,0.248,753.5,01.17,0.508
2016-07-15 01:24:00,2103E-3,5C000400,-0723,0828,12132,031.5,045.5,0.248,753.7,01.17,0.508
2016-07-15 01:25:00,2189E-3,5C000400,-0723,0828,12258,031.6,045.5,0.248,753.7,01.17,0.508
2016-07-15 01:26:00,2247E-3,5C000400,-0723,0828,12209,031.5,045.5,0.248,753.4,01.17,0.508
2016-07-15 01:27:00,2192E-3,5C000400,-0723,0828,12041,031.6,045.5,0.249,753.6,01.17,0.508
2016-07-15 01:28:00,2196E-3,5C000400,-0723,0828,12276,031.6,045.5,0.248,753.7,01.17,0.508
2016-07-15 01:29:00,2108E-3,5C000400,-0723,0828,12211,031.5,045.5,0.248,753.7,01.17,0.508
2016-07-15 01:30:00,2187E-3,5C000400,-0723,0828,12208,031.6,045.5,0.248,753.8,01.17,0.508
2016-07-15 01:31:00,2228E-3,5C000400,-0723,0828,12247,031.6,045.5,0.248,753.7,01.17,0.508
2016-07-15 01:32:00,2294E-3,5C000400,-0723,0828,12178,031.6,045.5,0.248,753.7,01.17,0.508
2016-07-15 01:33:00,2202E-3,5C000400,-0723,0828,12264,031.6,045.5,0.248,753.8,01.17,0.508
2016-07-15 01:34:00,2299E-3,5C000400,-0723,0828,12215,031.6,045.5,0.248,753.4,01.17,0.508
2016-07-15 01:35:00,2139E-3,5C000400,-0723,0828,12045,031.6,045.5,0.248,753.6,01.17,0.508
2016-07-15 01:36:00,2120E-3,5C000400,-0723,0828,12128,031.6,045.5,0.248,753.5,01.17,0.508
2016-07-15 01:37:00,2243E-3,5C000400,-0723,0828,12366,031.6,045.6,0.248,753.5,01.17,0.508
2016-07-15 01:38:00,2139E-3,5C000400,-0723,0828,12002,031.6,045.5,0.249,753.5,01.17,0.508
2016-07-15 01:39:00,2046E-3,5C000400,-0723,0829,12116,031.6,045.5,0.248,753.3,01.17,0.508
2016-07-15 01:40:00,2241E-3,5C000400,-0723,0828,12258,031.6,045.5,0.248,753.4,01.17,0.508
2016-07-15 01:41:00,2150E-3,5C000400,-0723,0829,12120,031.6,045.5,0.248,753.5,01.17,0.508
2016-07-15 01:42:00,2259E-3,5C000400,-0723,0828,12172,031.6,045.5,0.249,753.5,01.17,0.508
2016-07-15 01:43:00,2206E-3,5C000400,-0723,0827,12166,031.6,045.5,0.249,753.4,01.17,0.508
2016-07-15 01:44:00,2063E-3,5C000400,-0723,0828,12142,031.6,045.5,0.248,753.2,01.17,0.508
2016-07-15 01:45:00,2248E-3,5C000400,-0723,0829,12250,031.6,045.5,0.248,753.1,01.17,0.508
2016-07-15 01:46:00,2289E-3,5C000400,-0723,0828,12046,031.6,045.6,0.248,753.5,01.17,0.508
2016-07-15 01:47:00,2114E-3,5C000400,-0723,0828,12247,031.6,045.5,0.248,753.3,01.17,0.508
2016-07-15 01:48:00,2161E-3,5C000400,-0723,0829,12198,031.6,045.5,0.248,753.5,01.17,0.508
2016-07-15 01:49:00,2199E-3,5C000400,-0723,0828,12128,031.6,045.5,0.248,753.5,01.17,0.508
2016-07-15 01:50:00,2137E-3,5C000400,-0723,0828,12123,031.6,045.5,0.248,753.4,01.17,0.508
2016-07-15 01:51:00,2187E-3,5C000400,-0723,0828,12067,031.6,045.6,0.248,753.5,01.17,0.508
2016-07-15 01:52:00,2121E-3,5C000400,-0723,0828,12267,031.6,045.5,0.248,753.4,01.17,0.508
2016-07-15 01:53:00,2178E-3,5C000400,-0723,0828,12029,031.6,045.5,0.248,753.4,01.17,0.508
2016-07-15 01:54:00,2236E-3,5C000400,-0723,0828,12176,031.6,045.6,0.248,753.3,01.17,0.508
2016-07-15 01:55:00,2163E-3,5C000400,-0723,0828,12134,031.6,045.5,0.248,753.6,01.17,0.508
2016-07-15 01:56:00,2280E-3,5C000400,-0723,0828,11997,031.6,045.5,0.248,753.4,01.17,0.508
2016-07-15 01:57:00,2198E-3,5C000400,-0723,0828,12253,031.6,045.5,0.248,753.4,01.17,0.508
2016-07-15 01:58:00,2125E-3,5C000400,-0723,0828,12350,031.7,045.5,0.248,753.5,01.17,0.508
2016-07-15 01:59:00,2184E-3,5C000400,-0723,0829,12139,031.7,045.5,0.248,753.5,01.17,0.508
2016-07-15 02:00:00,2054E-3,5C000400,-0723,0829,12291,031.6,045.5,0.248,753.6,01.17,0.508
2016-07-15 02:01:00,2146E-3,5C000400,-0723,0828,12171,031.6,045.5,0.249,753.4,01.17,0.508
2016-07-15 02:02:00,2053E-3,5C000400,-0723,0827,12227,031.6,045.5,0.248,753.6,01.17,0.508
2016-07-15 02:03:00,2223E-3,5C000400,-0723,0828,12177,031.6,045.5,0.248,753.5,01.17,0.508
2016-07-15 02:04:00,2254E-3,5C000400,-0723,0828,12167,031.6,045.6,0.248,753.5,01.17,0.508
2016-07-15 02:05:00,2106E-3,5C000400,-0723,0828,12123,031.7,045.5,0.248,753.7,01.17,0.508
2016-07-15 02:06:00,2155E-3,5C000400,-0723,0829,12201,031.6,045.5,0.248,753.5,01.17,0.508
2016-07-15 02:07:00,2290E-3,5C000400,-0723,0828,12156,031.7,045.5,0.248,753.5,01.17,0.508
2016-07-15 02:08:00,2155E-3,5C000400,-0723,0828,12223,031.7,045.6,0.248,753.5,01.17,0.508
2016-07-15 02:09:00,2174E-3,5C000400,-0723,0827,12136,031.6,045.5,0.248,753.4,01.17,0.508
2016-07-15 02:10:00,2160E-3,5C000400,-0723,0828,12221,031.7,045.5,0.248,753.7,01.17,0.508
2016-07-15 02:11:00,2214E-3,5C000400,-0723,0829,12182,031.6,045.6,0.248,753.5,01.17,0.508
2016-07-15 02:12:00,2316E-3,5C000400,-0723,0828,12121,031.7,045.5,0.248,753.8,01.17,0.508
2016-07-15 02:13:00,2234E-3,5C000400,-0723,0829,12323,031.7,045.5,0.248,753.8,01.17,0.508
2016-07-15 02:14:00,2244E-3,5C000400,-0723,0829,12131,031.7,045.5,0.248,753.7,01.17,0.508
2016-07-15 02:15:00,2296E-3,5C000400,-0723,0828,12327,031.7,045.5,0.248,753.7,01.17,0.508
2016-07-15 02:16:00,2249E-3,5C000400,-0723,0828,12233,031.7,045.6,0.248,753.7,01.17,0.508
2016-07-15 02:17:00,2270E-3,5C000400,-0723,0828,12318,031.7,045.5,0.248,753.6,01.17,0.508
2016-07-15 02:18:00,2266E-3,5C000400,-0723,0829,12168,031.7,045.5,0.247,753.8,01.17,0.508
2016-07-15 02:19:00,2147E-3,5C000400,-0723,0828,12069,031.7,045.6,0.248,753.7,01.17,0.508
2016-07-15 02:20:00,2177E-3,5C000400,-0723,0828,12270,031.7,045.5,0.248,753.7,01.17,0.508
2016-07-15 02:21:00,2120E-3,5C000400,-0723,0829,12265,031.7,045.5,0.248,753.8,01.17,0.508
2016-07-15 02:22:00,2090E-3,5C000400,-0723,0828,12270,031.7,045.5,0.248,753.9,01.17,0.508
2016-07-15 02:23:00,2245E-3,5C000400,-0723,0828,12280,031.7,045.5,0.248,753.8,01.17,0.508
2016-07-15 02:24:00,2141E-3,5C000400,-0723,0828,12091,031.7,045.6,0.248,753.5,01.17,0.508
2016-07-15 02:25:00,2075E-3,5C000400,-0723,0828,12180,031.7,045.5,0.248,753.8,01.17,0.508
2016-07-15 02:26:00,2203E-3,5C000400,-0723,0828,12172,031.7,045.5,0.248,753.9,01.17,0.508
2016-07-15 02:27:00,2205E-3,5C000400,-0723,0828,12197,031.8,045.5,0.247,753.8,01.17,0.508
2016-07-15 02:28:00,2123E-3,5C000400,-0723,0828,12188,031.7,045.6,0.248,753.9,01.17,0.508
2016-07-15 02:29:00,2222E-3,5C000400,-0723,0828,12220,031.7,045.5,0.247,753.8,01.17,0.508
2016-07-15 02:30:00,2278E-3,5C000400,-0723,0828,12141,031.7,045.5,0.248,753.8,01.17,0.508
2016-07-15 02:31:00,2066E-3,5C000400,-0723,0828,12133,031.7,045.5,0.248,753.7,01.17,0.508
2016-07-15 02:32:00,2259E-3,5C000400,-0723,0828,12246,031.8,045.5,0.248,753.8,01.17,0.508
2016-07-15 02:33:00,2172E-3,5C000400,-0723,0828,12195,031.8,045.5,0.248,753.8,01.17,0.508
2016-07-15 02:34:00,2198E-3,5C000400,-0723,0828,12220,031.8,045.5,0.248,753.9,01.17,0.508
2016-07-15 02:35:00,2251E-3,5C000400,-0723,0828,12163,031.8,045.5,0.248,753.9,01.17,0.508
2016-07-15 02:36:00,2137E-3,5C000400,-0723,0829,12240,031.8,045.5,0.248,754.0,01.17,0.508
2016-07-15 02:37:00,2131E-3,5C000400,-0723,0829,12112,031.8,045.6,0.248,754.0,01.17,0.508
2016-07-15 02:38:00,2288E-3,5C000400,-0723,0829,12202,031.8,045.5,0.248,754.0,01.17,0.508
2016-07-15 02:39:00,2224E-3,5C000400,-0723,0828,12120,031.8,045.5,0.247,753.9,01.17,0.508
2016-07-15 02:40:00,2223E-3,5C000400,-0723,0829,12181,031.8,045.5,0.248,753.9,01.17,0.508
2016-07-15 02:41:00,2247E-3,5C000400,-0723,0828,12164,031.8,045.5,0.247,753.9,01.17,0.508
2016-07-15 02:42:00,2466E-3,5C000400,-0723,0828,12176,031.8,045.5,0.248,753.8,01.17,0.508
2016-07-15 02:43:00,2170E-3,5C000400,-0723,0829,12121,031.8,045.5,0.248,753.8,01.17,0.508
2016-07-15 02:44:00,2246E-3,5C000400,-0723,0829,12239,031.8,045.5,0.248,753.9,01.17,0.508
2016-07-15 02:45:00,2200E-3,5C000400,-0723,0828,12148,031.8,045.5,0.248,753.9,01.17,0.508
2016-07-15 02:46:00,2137E-3,5C000400,-0723,0828,12088,031.8,045.5,0.248,753.8,01.17,0.508
2016-07-15 02:47:00,2258E-3,5C000400,-0723,0829,12061,031.8,045.6,0.248,753.9,01.17,0.508
2016-07-15 02:48:00,2181E-3,5C000400,-0723,0829,12247,031.8,045.5,0.247,753.9,01.17,0.508
2016-07-15 02:49:00,2109E-3,5C000400,-0723,0829,12106,031.9,045.5,0.248,753.8,01.17,0.508
2016-07-15 02:50:00,2146E-3,5C000400,-0723,0828,12041,031.9,045.5,0.247,754.0,01.17,0.508
2016-07-15 02:51:00,2222E-3,5C000400,-0723,0829,11918,031.9,045.5,0.248,753.9,01.17,0.508
2016-07-15 02:52:00,2158E-3,5C000400,-0723,0828,12198,031.9,045.6,0.247,753.8,01.17,0.508
2016-07-15 02:53:00,2246E-3,5C000400,-0723,0827,12153,031.9,045.5,0.248,753.9,01.17,0.508
2016-07-15 02:54:00,2120E-3,5C000400,-0723,0829,12354,031.9,045.6,0.247,753.9,01.17,0.508
2016-07-15 02:55:00,2177E-3,5C000400,-0723,0828,12122,031.9,045.6,0.248,753.9,01.17,0.508
2016-07-15 02:56:00,2190E-3,5C000400,-0723,0828,12305,031.9,045.6,0.247,753.8,01.17,0.508
2016-07-15 02:57:00,2225E-3,5C000400,-0723,0829,12164,031.9,045.6,0.248,754.0,01.17,0.508
2016-07-15 02:58:00,2180E-3,5C000400,-0723,0828,12272,031.9,045.6,0.247,753.9,01.17,0.508
2016-07-15 02:59:00,2215E-3,5C000400,-0723,0828,12294,031.9,045.6,0.248,753.8,01.17,0.508
2016-07-15 03:00:00,1983E-3,5C000400,-0723,0830,11923,031.9,045.6,0.247,753.8,01.17,0.508
2016-07-15 03:01:00,2213E-3,5C000400,-0723,0828,12237,031.9,045.5,0.248,754.0,01.17,0.508
2016-07-15 03:02:00,2207E-3,5C000400,-0723,0828,12374,031.9,045.5,0.247,754.0,01.17,0.508
2016-07-15 03:03:00,2156E-3,5C000400,-0723,0828,12210,032.0,045.6,0.248,754.0,01.17,0.508
2016-07-15 03:04:00,2227E-3,5C000400,-0723,0828,12201,031.9,045.6,0.247,754.0,01.17,0.508
2016-07-15 03:05:00,2217E-3,5C000400,-0723,0828,12282,032.0,045.6,0.247,753.8,01.17,0.508
2016-07-15 03:06:00,2207E-3,5C000400,-0723,0828,12275,032.0,045.5,0.248,753.9,01.17,0.508
2016-07-15 03:07:00,2301E-3,5C000400,-0723,0828,12190,032.0,045.5,0.247,753.6,01.17,0.508
2016-07-15 03:08:00,2151E-3,5C000400,-0723,0828,12181,032.0,045.5,0.248,753.8,01.17,0.508
2016-07-15 03:09:00,2174E-3,5C000400,-0723,0827,12147,032.0,045.6,0.247,753.7,01.17,0.508
2016-07-15 03:10:00,2186E-3,5C000400,-0723,0828,12080,032.0,045.6,0.248,753.8,01.17,0.508
2016-07-15 03:11:00,2149E-3,5C000400,-0723,0829,12131,032.0,045.6,0.247,753.8,01.17,0.508
2016-07-15 03:12:00,2109E-3,5C000400,-0723,0828,12322,032.0,045.6,0.248,753.7,01.17,0.508
2016-07-15 03:13:00,2101E-3,5C000400,-0723,0828,12273,032.0,045.6,0.247,753.7,01.17,0.508
2016-07-15 03:14:00,2174E-3,5C000400,-0723,0828,12339,032.0,045.6,0.247,753.9,01.17,0.508
2016-07-15 03:15:00,2264E-3,5C000400,-0723,0828,12162,032.0,045.6,0.247,753.6,01.17,0.508
2016-07-15 03:16:00,2290E-3,5C000400,-0723,0829,12284,032.0,045.6,0.247,753.7,01.17,0.508
2016-07-15 03:17:00,2197E-3,5C000400,-0723,0828,12118,032.0,045.5,0.247,753.8,01.17,0.508
2016-07-15 03:18:00,2200E-3,5C000400,-0723,0828,12070,032.0,045.5,0.247,753.8,01.17,0.508
2016-07-15 03:19:00,2137E-3,5C000400,-0723,0828,12218,032.0,045.5,0.247,753.8,01.17,0.508
2016-07-15 03:20:00,2131E-3,5C000400,-0723,0828,12128,032.0,045.5,0.247,753.8,01.17,0.508
2016-07-15 03:21:00,2345E-3,5C000400,-0723,0828,12263,032.0,045.6,0.247,753.6,01.17,0.508
2016-07-15 03:22:00,2235E-3,5C000400,-0723,0829,12352,032.0,045.6,0.247,753.6,01.17,0.508
2016-07-15 03:23:00,2098E-3,5C000400,-0723,0829,12175,032.0,045.6,0.248,753.8,01.17,0.508
2016-07-15 03:24:00,2106E-3,5C000400,-0723,0828,12108,032.1,045.6,0.247,753.6,01.17,0.508
2016-07-15 03:25:00,2090E-3,5C000400,-0723,0828,12143,032.0,045.5,0.247,753.5,01.17,0.508
2016-07-15 03:26:00,2151E-3,5C000400,-0723,0829,12189,032.1,045.6,0.247,753.7,01.17,0.508
2016-07-15 03:27:00,2124E-3,5C000400,-0723,0829,11986,032.1,045.6,0.247,753.6,01.17,0.508
2016-07-15 03:28:00,2321E-3,5C000400,-0723,0829,12039,032.0,045.6,0.247,753.5,01.17,0.508
2016-07-15 03:29:00,2084E-3,5C000400,-0723,0829,12259,032.1,045.6,0.247,753.6,01.17,0.508
2016-07-15 03:30:00,2298E-3,5C000400,-0723,0828,12207,032.1,045.5,0.247,753.3,01.17,0.508
2016-07-15 03:31:00,2148E-3,5C000400,-0723,0828,12318,032.1,045.5,0.247,753.4,01.17,0.508
2016-07-15 03:32:00,2162E-3,5C000400,-0723,0828,12062,032.1,045.5,0.247,753.4,01.17,0.508
2016-07-15 03:33:00,2304E-3,5C000400,-0723,0828,12019,032.1,045.5,0.247,753.5,01.17,0.508
2016-07-15 03:34:00,2067E-3,5C000400,-0723,0829,12292,032.1,045.6,0.247,753.6,01.17,0.508
2016-07-15 03:35:00,2227E-3,5C000400,-0723,0828,12166,032.1,045.6,0.247,753.5,01.17,0.508
2016-07-15 03:36:00,2234E-3,5C000400,-0723,0828,12146,032.1,045.6,0.247,753.5,01.17,0.508
2016-07-15 03:37:00,2038E-3,5C000400,-0723,0828,12169,032.1,045.6,0.247,753.5,01.17,0.508
2016-07-15 03:38:00,2121E-3,5C000400,-0723,0828,12074,032.1,045.6,0.247,753.6,01.17,0.508
2016-07-15 03:39:00,2090E-3,5C000400,-0723,0829,12241,032.1,045.6,0.247,753.6,01.17,0.508
2016-07-15 03:40:00,2112E-3,5C000400,-0723,0828,12229,032.1,045.6,0.247,753.5,01.17,0.508
2016-07-15 03:41:00,2083E-3,5C000400,-0723,0828,12285,032.1,045.5,0.247,753.4,01.17,0.508
2016-07-15 03:42:00,2250E-3,5C000400,-0723,0828,12263,032.1,045.6,0.247,753.4,01.17,0.508
2016-07-15 03:43:00,2075E-3,5C000400,-0723,0830,12200,032.1,045.6,0.248,753.4,01.17,0.508
2016-07-15 03:44:00,2157E-3,5C000400,-0723,0829,12205,032.2,045.6,0.247,753.5,01.17,0.508
2016-07-15 03:45:00,2220E-3,5C000400,-0723,0828,12149,032.2,045.6,0.247,753.6,01.17,0.508
2016-07-15 03:46:00,2193E-3,5C000400,-0723,0829,12220,032.2,045.6,0.247,753.6,01.17,0.508
2016-07-15 03:47:00,2103E-3,5C000400,-0723,0829,12248,032.2,045.6,0.247,753.4,01.17,0.508
2016-07-15 03:48:00,2136E-3,5C000400,-0723,0829,12201,032.2,045.6,0.247,753.5,01.17,0.508
2016-07-15 03:49:00,2152E-3,5C000400,-0723,0829,12280,032.2,045.5,0.247,753.6,01.17,0.508
2016-07-15 03:50:00,2277E-3,5C000400,-0723,0828,12221,032.2,045.6,0.247,753.5,01.17,0.508
2016-07-15 03:51:00,2072E-3,5C000400,-0723,0828,11928,032.2,045.6,0.246,753.2,01.17,0.508
2016-07-15 03:52:00,2155E-3,5C000400,-0723,0828,12226,032.2,045.6,0.247,753.5,01.17,0.508
2016-07-15 03:53:00,2122E-3,5C000400,-0723,0829,12204,032.2,045.6,0.246,753.4,01.17,0.508
2016-07-15 03:54:00,2149E-3,5C000400,-0723,0829,12197,032.2,045.6,0.247,753.5,01.17,0.508
2016-07-15 03:55:00,2212E-3,5C000400,-0723,0829,12300,032.2,045.6,0.246,753.3,01.17,0.508
2016-07-15 03:56:00,2093E-3,5C000400,-0723,0829,12282,032.2,045.6,0.247,753.4,01.17,0.508
2016-07-15 03:57:00,2215E-3,5C000400,-0723,0829,12250,032.2,045.6,0.247,753.5,01.17,0.508
2016-07-15 03:58:00,2205E-3,5C000400,-0723,0830,12283,032.3,045.5,0.247,753.5,01.17,0.508
2016-07-15 03:59:00,2183E-3,5C000400,-0723,0828,12321,032.3,045.6,0.247,753.3,01.17,0.508
2016-07-15 04:00:00,2049E-3,5C000400,-0723,0828,12134,032.3,045.6,0.247,753.4,01.17,0.508
2016-07-15 04:01:00,2195E-3,5C000400,-0723,0828,12180,032.3,045.6,0.247,753.4,01.17,0.508
2016-07-15 04:02:00,2078E-3,5C000400,-0723,0828,12169,032.3,045.6,0.247,753.5,01.17,0.508
2016-07-15 04:03:00,2242E-3,5C000400,-0723,0828,12096,032.3,045.6,0.247,753.4,01.17,0.508
2016-07-15 04:04:00,2134E-3,5C000400,-0723,0829,12287,032.3,045.6,0.246,753.3,01.17,0.508
2016-07-15 04:05:00,2250E-3,5C000400,-0723,0829,12160,032.3,045.5,0.247,753.3,01.17,0.508
2016-07-15 04:06:00,2072E-3,5C000400,-0723,0829,12176,032.3,045.6,0.246,753.2,01.17,0.508
2016-07-15 04:07:00,2312E-3,5C000400,-0723,0829,12225,032.3,045.6,0.247,753.4,01.17,0.508
2016-07-15 04:08:00,2178E-3,5C000400,-0723,0829,12213,032.3,045.6,0.246,753.1,01.17,0.508
2016-07-15 04:09:00,2219E-3,5C000400,-0723,0829,12146,032.3,045.6,0.247,753.2,01.17,0.508
2016-07-15 04:10:00,2284E-3,5C000400,-0723,0829,12276,032.3,045.6,0.246,753.2,01.17,0.508
2016-07-15 04:11:00,2299E-3,5C000400,-0723,0829,12134,032.3,045.6,0.247,753.3,01.17,0.508
2016-07-15 04:12:00,2162E-3,5C000400,-0723,0829,12287,032.3,045.6,0.247,753.3,01.17,0.508
2016-07-15 04:13:00,2149E-3,5C000400,-0723,0829,12017,032.3,045.6,0.246,753.3,01.17,0.508
2016-07-15 04:14:00,2112E-3,5C000400,-0723,0829,12225,032.3,045.6,0.247,753.3,01.17,0.508
2016-07-15 04:15:00,2180E-3,5C000400,-0723,0829,12233,032.3,045.6,0.246,753.3,01.17,0.508
2016-07-15 04:16:00,2257E-3,5C000400,-0723,0829,12195,032.3,045.6,0.247,753.3,01.17,0.508
2016-07-15 04:17:00,2265E-3,5C000400,-0723,0829,12144,032.4,045.6,0.246,753.3,01.17,0.508
2016-07-15 04:18:00,2273E-3,5C000400,-0723,0829,12226,032.4,045.6,0.247,753.2,01.17,0.508
2016-07-15 04:19:00,2249E-3,5C000400,-0723,0829,12172,032.4,045.6,0.246,753.1,01.17,0.508
2016-07-15 04:20:00,2148E-3,5C000400,-0723,0829,12262,032.4,045.6,0.247,753.3,01.17,0.508